TimeEST,TemperatureF,Dew PointF,Humidity,Sea Level PressureIn,VisibilityMPH,Wind Direction,Wind SpeedMPH,Gust SpeedMPH,PrecipitationIn,Events,Conditions,WindDirDegrees,DateUTC
12:15 AM,21.2,19.4,93,30.08,10.0,South,6.9,-,N/A,,Clear,190,2012-12-23 05:15:00
12:35 AM,21.2,19.4,93,30.08,10.0,SSW,5.8,-,N/A,,Clear,200,2012-12-23 05:35:00
12:55 AM,23.0,19.4,86,30.08,10.0,South,5.8,-,N/A,,Clear,190,2012-12-23 05:55:00
1:15 AM,23.0,19.4,86,30.08,10.0,South,4.6,-,N/A,,Clear,180,2012-12-23 06:15:00
1:35 AM,23.0,19.4,86,30.08,10.0,South,4.6,-,N/A,,Clear,180,2012-12-23 06:35:00
1:55 AM,23.0,19.4,86,30.08,10.0,South,4.6,-,N/A,,Clear,180,2012-12-23 06:55:00
2:15 AM,23.0,19.4,86,30.07,10.0,South,5.8,-,N/A,,Clear,190,2012-12-23 07:15:00
2:35 AM,21.2,19.4,93,30.07,10.0,SSW,6.9,-,N/A,,Clear,200,2012-12-23 07:35:00
2:55 AM,21.2,19.4,93,30.07,10.0,SSW,6.9,-,N/A,,Clear,210,2012-12-23 07:55:00
3:15 AM,23.0,19.4,86,30.07,10.0,SSW,4.6,-,N/A,,Clear,200,2012-12-23 08:15:00
3:35 AM,23.0,19.4,86,30.06,10.0,SSW,5.8,-,N/A,,Clear,200,2012-12-23 08:35:00
3:55 AM,23.0,19.4,86,30.05,10.0,SSW,5.8,-,N/A,,Clear,200,2012-12-23 08:55:00
4:15 AM,23.0,19.4,86,30.05,10.0,South,4.6,-,N/A,,Clear,190,2012-12-23 09:15:00
4:35 AM,23.0,19.4,86,30.04,10.0,South,5.8,-,N/A,,Clear,190,2012-12-23 09:35:00
4:55 AM,23.0,19.4,86,30.04,10.0,South,5.8,-,N/A,,Clear,190,2012-12-23 09:55:00
5:15 AM,23.0,17.6,80,30.03,10.0,South,5.8,-,N/A,,Clear,190,2012-12-23 10:15:00
5:35 AM,21.2,17.6,86,30.03,10.0,SSW,6.9,-,N/A,,Clear,200,2012-12-23 10:35:00
5:55 AM,23.0,17.6,80,30.03,10.0,South,5.8,-,N/A,,Clear,190,2012-12-23 10:55:00
6:15 AM,23.0,17.6,80,30.02,10.0,South,5.8,-,N/A,,Clear,170,2012-12-23 11:15:00
6:35 AM,24.8,17.6,74,30.01,10.0,South,6.9,-,N/A,,Clear,180,2012-12-23 11:35:00
6:55 AM,23.0,15.8,74,30.00,10.0,South,6.9,-,N/A,,Clear,190,2012-12-23 11:55:00
7:15 AM,24.8,15.8,69,30.00,10.0,South,6.9,-,N/A,,Clear,180,2012-12-23 12:15:00
7:35 AM,23.0,15.8,74,29.99,10.0,South,5.8,-,N/A,,Clear,180,2012-12-23 12:35:00
7:55 AM,26.6,14.0,59,29.99,10.0,South,4.6,-,N/A,,Clear,180,2012-12-23 12:55:00
8:15 AM,26.6,14.0,59,29.98,10.0,South,5.8,-,N/A,,Clear,180,2012-12-23 13:15:00
8:35 AM,28.4,14.0,55,29.98,10.0,Calm,Calm,-,N/A,,Clear,0,2012-12-23 13:35:00
8:55 AM,28.4,15.8,59,29.99,10.0,Calm,Calm,-,N/A,,Clear,0,2012-12-23 13:55:00
9:15 AM,32.0,15.8,51,29.99,10.0,SW,5.8,-,N/A,,Clear,220,2012-12-23 14:15:00
9:35 AM,32.0,17.6,55,29.99,10.0,SSW,8.1,-,N/A,,Clear,200,2012-12-23 14:35:00
9:55 AM,33.8,19.4,56,29.99,10.0,SSW,10.4,18.4,N/A,,Clear,210,2012-12-23 14:55:00
10:15 AM,37.4,19.4,48,29.99,10.0,SSW,13.8,19.6,N/A,,Clear,210,2012-12-23 15:15:00
10:35 AM,37.4,19.4,48,29.99,10.0,SW,11.5,19.6,N/A,,Clear,220,2012-12-23 15:35:00
10:55 AM,39.2,19.4,45,29.99,10.0,SW,15.0,18.4,N/A,,Clear,230,2012-12-23 15:55:00
11:15 AM,39.2,21.2,49,29.98,10.0,SW,13.8,21.9,N/A,,Clear,230,2012-12-23 16:15:00
11:35 AM,39.2,21.2,49,29.97,10.0,SW,12.7,21.9,N/A,,Clear,220,2012-12-23 16:35:00
11:55 AM,39.2,21.2,49,29.96,10.0,SW,13.8,24.2,N/A,,Clear,230,2012-12-23 16:55:00
12:15 PM,41.0,21.2,45,29.95,10.0,SSW,13.8,25.3,N/A,,Clear,210,2012-12-23 17:15:00
12:35 PM,41.0,23.0,49,29.94,10.0,SW,12.7,20.7,N/A,,Clear,230,2012-12-23 17:35:00
12:55 PM,41.0,23.0,49,29.93,10.0,SW,13.8,20.7,N/A,,Clear,220,2012-12-23 17:55:00
1:15 PM,42.8,23.0,46,29.92,10.0,SW,15.0,19.6,N/A,,Clear,230,2012-12-23 18:15:00
1:35 PM,42.8,23.0,46,29.91,10.0,SW,13.8,19.6,N/A,,Clear,220,2012-12-23 18:35:00
1:55 PM,42.8,23.0,46,29.91,10.0,SSW,12.7,20.7,N/A,,Clear,210,2012-12-23 18:55:00
2:15 PM,42.8,24.8,49,29.91,10.0,SW,9.2,-,N/A,,Clear,230,2012-12-23 19:15:00
2:35 PM,42.8,24.8,49,29.91,10.0,SW,11.5,-,N/A,,Clear,230,2012-12-23 19:35:00
2:55 PM,42.8,24.8,49,29.91,10.0,SW,9.2,-,N/A,,Clear,220,2012-12-23 19:55:00
3:15 PM,42.8,24.8,49,29.91,10.0,SW,10.4,17.3,N/A,,Clear,220,2012-12-23 20:15:00
3:35 PM,44.6,26.6,49,29.92,10.0,SW,9.2,-,N/A,,Clear,230,2012-12-23 20:35:00
3:55 PM,44.6,26.6,49,29.92,10.0,WSW,10.4,-,N/A,,Clear,240,2012-12-23 20:55:00
4:15 PM,44.6,26.6,49,29.92,10.0,SW,8.1,-,N/A,,Clear,230,2012-12-23 21:15:00
4:35 PM,42.8,26.6,53,29.93,10.0,WSW,4.6,-,N/A,,Clear,250,2012-12-23 21:35:00
4:55 PM,42.8,26.6,53,29.93,10.0,West,5.8,-,N/A,,Clear,260,2012-12-23 21:55:00
5:15 PM,42.8,26.6,53,29.93,10.0,West,5.8,-,N/A,,Clear,260,2012-12-23 22:15:00
5:35 PM,41.0,26.6,57,29.94,10.0,WNW,3.5,-,N/A,,Clear,300,2012-12-23 22:35:00
5:55 PM,39.2,26.6,61,29.94,10.0,West,3.5,-,N/A,,Clear,260,2012-12-23 22:55:00
6:15 PM,39.2,26.6,61,29.94,10.0,Calm,Calm,-,N/A,,Clear,0,2012-12-23 23:15:00
6:35 PM,37.4,26.6,65,29.95,10.0,Calm,Calm,-,N/A,,Clear,0,2012-12-23 23:35:00
6:55 PM,39.2,26.6,61,29.96,10.0,Calm,Calm,-,N/A,,Clear,0,2012-12-23 23:55:00
7:15 PM,39.2,26.6,61,29.96,10.0,Calm,Calm,-,N/A,,Clear,0,2012-12-24 00:15:00
7:35 PM,37.4,26.6,65,29.96,10.0,Calm,Calm,-,N/A,,Clear,0,2012-12-24 00:35:00
7:55 PM,35.6,26.6,70,29.96,10.0,Calm,Calm,-,N/A,,Clear,0,2012-12-24 00:55:00
8:15 PM,35.6,26.6,70,29.96,10.0,Calm,Calm,-,N/A,,Clear,0,2012-12-24 01:15:00
8:35 PM,33.8,26.6,75,29.96,10.0,Calm,Calm,-,N/A,,Clear,0,2012-12-24 01:35:00
8:55 PM,33.8,26.6,75,29.97,10.0,Calm,Calm,-,N/A,,Clear,0,2012-12-24 01:55:00
9:15 PM,33.8,26.6,75,29.97,10.0,Calm,Calm,-,N/A,,Clear,0,2012-12-24 02:15:00
9:35 PM,32.0,26.6,80,29.97,10.0,Calm,Calm,-,N/A,,Clear,0,2012-12-24 02:35:00
9:55 PM,32.0,28.4,87,29.98,10.0,Calm,Calm,-,N/A,,Clear,0,2012-12-24 02:55:00
10:15 PM,32.0,26.6,80,29.98,10.0,Calm,Calm,-,N/A,,Clear,0,2012-12-24 03:15:00
10:35 PM,32.0,26.6,80,29.98,10.0,Calm,Calm,-,N/A,,Clear,0,2012-12-24 03:35:00
10:55 PM,32.0,26.6,80,29.98,10.0,Calm,Calm,-,N/A,,Clear,0,2012-12-24 03:55:00
11:15 PM,32.0,26.6,80,29.98,10.0,Calm,Calm,-,N/A,,Clear,0,2012-12-24 04:15:00
11:35 PM,32.0,26.6,80,29.98,10.0,Calm,Calm,-,N/A,,Clear,0,2012-12-24 04:35:00
11:55 PM,32.0,26.6,80,29.98,10.0,Calm,Calm,-,N/A,,Clear,0,2012-12-24 04:55:00